星链-37549(STARLINK-37549)

导读

STARLINK-37549(NORAD编号69351)是美国太空探索技术公司(SpaceX)星链互联网星座的成员卫星,2026年2月7日由猎鹰9号Block 5火箭从美国范登堡太空军基地SLC-4E工位发射,属于星链17-33批次,是本次任务部署的25颗星链卫星之一,运行于近地轨道,核心功能是提供全球高速天基互联网接入服务。 2026年SpaceX宣布将约4400颗550公里轨道高度的星链卫星降至480公里运行,以缩短故障卫星脱轨时间、降低轨道碰撞风险,该卫星大概率属于此次调轨范围,目前在轨运行状态稳定,属于星链第二代组网的补充节点。

基本信息
目录编号:
69351
目录名称:
STARLINK-37549
国际标识:
2026-122Y
轨道中心:
EARTH
卫星名称:
星链-37549
卫星全名:
星链-37549(STARLINK-37549)
卫星状态:
在轨 (已飞行94 天)
发射日期:
2026-06-03 UTC
国别 :
美国 (US)
星等 :
--
轨道信息
数据来源 国际轨道数据
星历时间: 2026-09-05T04:10:12+0800
11小时前
查看轨道信息
半长轴: 6843.677km
偏心率: 0.0000286
轨道倾角: 97.285°
近地点辐角 197.310°
升交点赤经 276.749°
平近点角 162.814°
近地点: 465.344km
远地点: 465.736km
周期: 93.906分钟
每日圈数: 15.334463
详细信息
固有亮度:
5
最大亮度:
2.5
卫星平台:
Starlink V1.0
覆盖范围:
全球
运营商:
太空探索技术公司
运营商所在国:
美国
制造商(研发单位):
太空探索技术公司
制造商所在国:
美国
使用方式:
暂无
卫星简介
Starlink 计划是 SpaceX 推出的全球卫星互联网项目,通过发射低轨道卫星,为全球尤其是偏远地区提供高速、低延迟的互联网服务。自 2019 年起,Starlink 已部署数千颗卫星,旨在缩小全球数字鸿沟,推动互联网普及。该项目还为军事、航空等行业提供通信支持,带来广泛经济效益。
2D轨道图
3D轨道图
轨道高度分析图
轨道倾角分析图
轨道综合分析图
查看轨道综合分析图
交会数据列表
事件ID 空间交会对象 最接近时刻(TCA) 交会距离 交会风险概率(CRP) 交会风险指数(CRI) 操作
CDM_260906-081106-431306-935121
2026-09-06T
08:11:49+0000
1.196 km
极远距离
1.482958E-5 中风险 0.58
CDM_260905-102604-941006-935122
2026-09-05T
10:26:34+0000
2.341 km
极远距离
1.944514E-6 低风险 0.41
CDM_260907-184106-542706-935121
2026-09-07T
18:41:03+0000
2.622 km
极远距离
1.615203E-6 低风险 0.39
CDM_260907-104005-327406-935121
2026-09-07T
10:40:07+0000
2.805 km
极远距离
1.441749E-6 低风险 0.38
CDM_260903-022604-832006-935121
2026-09-03T
02:26:19+0000
2.930 km
极远距离
1.134264E-6 低风险 0.36
CDM_260907-105904-835806-935121
2026-09-07T
10:59:36+0000
2.778 km
极远距离
1.033572E-6 低风险 0.35